W4RJF Weather Reports


time (UTC)temp
C
wind
direction
speed
KPH
gust
KPH
rain 1hr
cm
rain 24hr
cm
rain mn
cm
humidity
%
barometer
mb
20260503050508 7 158 0.0 0.0 0.00 0.36 0.00 95 1015.0
20260503050022 7 158 0.0 0.0 0.00 0.36 0.00 95 1015.1
20260503045509 7 158 0.0 0.0 0.00 0.36 0.00 95 1015.1
20260503044520 7 158 0.0 0.0 0.00 0.36 0.00 95 1015.1
20260503043508 7 158 0.0 0.0 0.00 0.36 0.00 95 1014.9
20260503043024 7 158 0.0 0.0 0.00 0.36 0.00 95 1014.9
20260503042508 7 158 0.0 0.0 0.00 0.36 0.00 95 1015.0
20260503041535 7 158 0.0 0.0 0.00 0.36 0.00 95 1014.9
20260503035508 8 158 0.0 0.0 0.00 0.36 0.36 95 1014.8
20260503035010 8 158 0.0 0.0 0.00 0.36 0.36 95 1014.7
20260503034516 8 158 0.0 0.0 0.00 0.36 0.36 95 1014.6
20260503033022 8 158 0.0 0.0 0.00 0.36 0.36 95 1014.5
20260503032511 8 158 0.0 0.0 0.00 0.36 0.36 95 1014.5
20260503031521 8 158 0.0 0.0 0.00 0.36 0.36 95 1014.5
20260503030510 8 158 0.0 0.0 0.00 0.36 0.36 95 1014.3
20260503030028 8 158 0.0 0.0 0.00 0.36 0.36 95 1014.3
20260503024010 9 158 0.0 0.0 0.00 0.36 0.36 95 1014.1
20260503023510 9 158 0.0 0.0 0.00 0.36 0.36 95 1014.1
20260503023016 9 158 0.0 0.0 0.00 0.36 0.36 95 1014.0
20260503022008 9 158 0.0 0.0 0.00 0.36 0.36 95 1013.9
20260503021525 9 158 0.0 0.0 0.00 0.36 0.36 95 1014.0
20260503021009 9 158 0.0 0.0 0.00 0.36 0.36 95 1014.1
20260503020024 9 158 0.0 0.0 0.00 0.36 0.36 94 1014.1
20260503015509 9 158 0.0 0.0 0.00 0.36 0.36 94 1014.1
20260503014527 9 158 0.0 0.0 0.00 0.36 0.36 94 1014.1
20260503013032 10 158 0.0 0.0 0.00 0.36 0.36 94 1013.9
20260503012511 10 158 0.0 0.0 0.00 0.36 0.36 94 1013.9
20260503012009 10 158 0.0 0.0 0.00 0.36 0.36 94 1013.9
20260503011520 10 158 0.0 0.0 0.00 0.36 0.36 94 1013.8
20260503011010 10 158 0.0 0.0 0.00 0.36 0.36 94 1013.7
20260503010025 10 158 0.0 0.0 0.00 0.36 0.36 94 1013.6
20260503005011 10 158 0.0 0.0 0.00 0.36 0.36 93 1013.4
20260503004526 10 158 0.0 0.0 0.00 0.36 0.36 93 1013.3
20260503002503 11 158 0.0 0.0 0.00 0.36 0.36 92 1013.2
20260503002007 11 158 0.0 0.0 0.00 0.36 0.36 92 1013.2
20260503001516 11 158 0.0 0.0 0.00 0.36 0.36 92 1013.0
20260503001007 11 158 0.0 0.0 0.00 0.36 0.36 92 1012.9
20260503000505 11 157 0.0 0.0 0.00 0.36 0.36 92 1012.7
20260503000020 11 157 0.0 0.0 0.00 0.36 0.36 92 1012.6
20260502235003 11 157 0.0 0.0 0.00 0.36 0.36 90 1012.5
20260502234508 11 157 0.0 0.0 0.00 0.36 0.36 90 1012.5
20260502234001 11 157 0.0 0.0 0.00 0.36 0.36 91 1012.5
20260502233503 11 157 0.0 0.0 0.00 0.36 0.36 90 1012.4
20260502233010 11 157 0.0 0.0 0.00 0.36 0.36 90 1012.5
20260502232006 11 157 0.0 0.0 0.00 0.36 0.36 90 1012.3
20260502231511 11 157 0.0 0.0 0.00 0.36 0.36 90 1012.3
20260502231007 11 157 0.0 0.0 0.00 0.36 0.36 89 1012.2
20260502230026 11 157 0.0 0.0 0.00 0.36 0.36 88 1012.2
20260502225508 11 157 0.0 0.0 0.00 0.36 0.36 88 1012.4
20260502224525 11 157 0.0 0.0 0.00 0.36 0.36 88 1012.2
20260502224008 11 157 0.0 0.0 0.00 0.36 0.36 87 1012.2
20260502223006 11 157 0.0 0.0 0.00 0.36 0.36 86 1012.3
20260502222002 12 157 0.0 0.0 0.00 0.36 0.36 87 1012.3
20260502221527 12 157 0.0 0.0 0.00 0.36 0.36 87 1012.2
20260502220508 12 157 0.0 0.0 0.00 0.36 0.36 87 1012.1
20260502220018 12 157 0.0 0.0 0.00 0.36 0.36 87 1012.1
20260502215507 12 157 0.0 0.0 0.00 0.36 0.36 86 1012.0
20260502214521 12 157 0.0 0.0 0.00 0.36 0.36 85 1012.1
20260502213024 12 157 0.0 3.2 0.00 0.36 0.36 84 1012.0
20260502212004 12 120 0.0 1.6 0.00 0.36 0.36 86 1012.0
20260502211509 12 111 0.0 1.6 0.00 0.36 0.36 85 1012.0
20260502210014 12 149 0.0 3.2 0.00 0.36 0.36 85 1012.1
20260502205008 12 103 0.0 0.0 0.00 0.36 0.36 85 1012.1
20260502204520 12 103 0.0 3.2 0.00 0.36 0.36 86 1012.1
20260502204011 12 103 0.0 3.2 0.00 0.36 0.36 82 1012.1
20260502203021 12 74 0.0 3.2 0.00 0.36 0.36 84 1012.1
20260502202007 12 63 0.0 3.2 0.00 0.36 0.36 85 1012.1
20260502201526 12 53 0.0 3.2 0.00 0.36 0.36 84 1012.1
20260502201004 12 57 0.0 3.2 0.00 0.36 0.36 86 1012.0
20260502200012 12 90 0.0 3.2 0.00 0.36 0.36 84 1012.1
20260502194515 12 96 0.0 3.2 0.00 0.36 0.36 86 1012.3
20260502193510 12 96 0.0 3.2 0.00 0.36 0.36 87 1012.4
20260502193023 12 98 0.0 3.2 0.00 0.36 0.36 88 1012.5
20260502192509 11 81 0.0 3.2 0.00 0.36 0.36 86 1012.5
20260502191526 11 88 0.0 3.2 0.00 0.38 0.36 87 1012.6
20260502191011 11 87 0.0 4.8 0.00 0.38 0.36 90 1012.6
20260502190509 11 80 0.0 4.8 0.00 0.38 0.36 90 1012.6
20260502190014 11 109 0.0 3.2 0.00 0.38 0.36 89 1012.5
20260502185503 11 100 1.6 3.2 0.00 0.38 0.36 90 1012.7
20260502184525 11 80 1.6 4.8 0.00 0.38 0.36 91 1012.7
20260502183028 11 98 0.0 6.4 0.00 0.38 0.36 93 1012.8
20260502182508 11 98 0.0 4.8 0.03 0.41 0.36 92 1012.8
20260502181522 11 109 0.0 3.2 0.03 0.43 0.36 93 1013.2
20260502164011 10 109 0.0 3.2 0.05 0.38 0.30 94 1013.5
20260502163507 10 108 0.0 3.2 0.05 0.38 0.30 94 1013.7
20260502163016 10 91 0.0 3.2 0.05 0.38 0.30 94 1014.0
20260502162008 10 93 0.0 3.2 0.05 0.36 0.28 94 1014.2
20260502152007 11 86 1.6 6.4 0.05 0.30 0.23 94 1013.7
20260502151518 11 98 0.0 4.8 0.05 0.30 0.23 94 1013.7
20260502151008 11 104 0.0 4.8 0.05 0.30 0.23 94 1013.9
20260502130509 11 240 0.0 3.2 0.08 0.20 0.13 93 1013.1
20260502123508 10 297 0.0 3.2 0.05 0.15 0.08 93 1012.4
20260502123030 10 292 0.0 3.2 0.05 0.15 0.08 93 1012.3
20260502122502 10 346 0.0 3.2 0.05 0.15 0.08 93 1012.2
20260502122002 10 346 0.0 3.2 0.05 0.15 0.08 93 1012.4
20260502121503 10 246 0.0 3.2 0.03 0.13 0.05 92 1012.4
20260502121002 10 9 0.0 3.2 0.03 0.13 0.05 93 1012.4
20260502120502 10 324 0.0 3.2 0.03 0.13 0.05 92 1012.4
20260502115502 10 53 0.0 3.2 0.03 0.13 0.05 92 1012.4
20260502115003 10 306 0.0 3.2 0.00 0.10 0.03 92 1012.4
20260502114504 10 52 0.0 3.2 0.03 0.10 0.03 92 1012.5
20260502114003 10 333 0.0 3.2 0.03 0.10 0.03 92 1012.7
20260502113505 10 330 0.0 3.2 0.03 0.10 0.03 92 1012.6
20260502112502 11 57 0.0 1.6 0.03 0.10 0.03 91 1012.7
20260502112002 11 328 0.0 3.2 0.03 0.10 0.03 91 1012.8
20260502111510 11 342 0.0 3.2 0.03 0.10 0.03 91 1012.9
20260502111002 11 329 0.0 3.2 0.03 0.10 0.03 91 1012.8
20260502110502 11 328 0.0 0.0 0.03 0.10 0.03 91 1012.8
20260502110009 11 328 0.0 3.2 0.03 0.10 0.03 91 1013.0
20260502105505 11 328 0.0 3.2 0.03 0.10 0.03 91 1012.9
20260502105003 11 199 0.0 1.6 0.03 0.10 0.03 91 1012.8
20260502104503 11 247 0.0 3.2 0.00 0.08 0.00 91 1012.8
20260502104004 11 9 0.0 3.2 0.00 0.08 0.00 91 1012.8
20260502103503 11 5 0.0 3.2 0.00 0.08 0.00 90 1012.9
20260502103004 11 317 0.0 3.2 0.00 0.08 0.00 90 1012.9
20260502102503 11 294 0.0 3.2 0.00 0.08 0.00 90 1012.9
20260502102002 11 311 0.0 3.2 0.00 0.08 0.00 90 1012.8
20260502101504 11 290 0.0 3.2 0.00 0.08 0.00 90 1012.7
20260502101002 11 350 0.0 3.2 0.00 0.08 0.00 90 1012.8
20260502100505 11 11 0.0 3.2 0.00 0.08 0.00 91 1012.8
20260502091504 11 323 0.0 0.0 0.00 0.08 0.00 92 1012.9
20260502091002 11 323 0.0 0.0 0.00 0.08 0.00 92 1012.9
20260502090502 11 323 0.0 1.6 0.00 0.08 0.00 92 1012.9
20260502071506 11 301 0.0 0.0 0.00 0.08 0.00 93 1011.8
20260502071003 11 301 0.0 0.0 0.00 0.08 0.00 93 1011.8
20260502070503 11 301 0.0 0.0 0.00 0.08 0.00 93 1011.8
20260502070009 11 301 0.0 0.0 0.00 0.08 0.00 93 1011.8
20260502065503 11 301 0.0 0.0 0.00 0.08 0.00 93 1012.0
20260502065003 11 301 0.0 0.0 0.00 0.08 0.00 93 1012.1
20260502064507 11 301 0.0 0.0 0.00 0.08 0.00 93 1012.1
20260502064007 11 250 0.0 0.0 0.00 0.08 0.00 94 1012.2
20260502063504 11 250 0.0 0.0 0.00 0.08 0.00 94 1012.2
20260502063022 11 250 0.0 0.0 0.00 0.08 0.00 94 1012.0
20260502062504 11 250 0.0 0.0 0.00 0.08 0.00 94 1012.3
20260502062005 11 250 0.0 0.0 0.00 0.08 0.00 94 1012.3
20260502061508 11 250 0.0 0.0 0.00 0.08 0.00 94 1012.4
20260502061003 11 250 0.0 0.0 0.00 0.08 0.00 94 1012.3
20260502060503 11 250 0.0 0.0 0.00 0.08 0.00 94 1012.4
20260502060007 11 250 0.0 0.0 0.00 0.08 0.00 94 1012.6
20260502055504 11 250 0.0 0.0 0.00 0.08 0.00 94 1012.5
20260502055004 11 250 0.0 0.0 0.00 0.08 0.00 94 1012.5
20260502054003 11 250 0.0 0.0 0.00 0.08 0.00 93 1012.6
20260502053504 11 250 0.0 0.0 0.00 0.08 0.00 93 1012.7
20260502053008 11 250 0.0 0.0 0.00 0.08 0.00 93 1012.8
20260502052504 11 250 0.0 0.0 0.00 0.08 0.00 93 1012.9
20260502052004 11 250 0.0 0.0 0.00 0.08 0.00 93 1012.9
20260502051510 11 250 0.0 0.0 0.00 0.08 0.00 93 1013.0